HELLAS-SAT 2

Last updated on Sat Dec 13 2025 00:02:46 GMT+0000 (Coordinated Universal Time)

1 27811U 03020A 25346.06028589 -.00000076 00000+0 00000+0 0 9994 2 27811 6.8898 70.1277 0010995 189.5038 193.0688 1.00271755 40975
UTC large
Height (km)
Speed (km/s)
/
Latitude / Longitude
Inclination (degrees)
Orbital Period (minutes)
Azimuth
Elevation
Range (km)
Doppler Factor

Next 0 passes for location: London (51.5072 / 0.1276)

Sorry there are no passes over London.